This demonstration page uses our WeatherBlox Daily Observations layout. Learn more.

Left ArrowRight Arrow

Hourly Observations for November 11, 2022

Temp ( °F °C ) Dew Point ( °F °C ) Humidity (%) Winds ( mph kmh ) Pressure ( in mb ) Visibility ( mi km ) Precip ( " mm )
12:56 am 00:56 Clear 19 -7.2 11 -11.7 70 70 NNW 15 24 30.27 1025 10 16 0.00 0.00
1:56 am 01:56 Clear 18 -7.8 10 -12.2 71 71 NW 16 26 30.28 1026 10 16 0.00 0.00
2:56 am 02:56 Clear 17 -8.3 10 -12.2 73 73 NNW 14 22 30.29 1026 10 16 0.00 0.00
3:56 am 03:56 Clear 16 -8.9 10 -12.2 77 77 NW 12 19 30.31 1026 10 16 0.00 0.00
4:56 am 04:56 Clear 15 -9.4 9 -12.8 76 76 NW 12 19 30.32 1027 10 16 0.00 0.00
5:56 am 05:56 Clear 15 -9.4 9 -12.8 76 76 WNW 15 24 30.32 1027 10 16 0.00 0.00
6:56 am 06:56 Clear 14 -10 9 -12.8 80 80 NW 12 19 30.34 1027 10 16 0.00 0.00
7:56 am 07:56 Sunny 14 -10 9 -12.8 80 80 NNW 12 19 30.35 1028 10 16 0.00 0.00
8:56 am 08:56 Sunny 17 -8.3 10 -12.2 73 73 NNW 17 28 30.35 1028 10 16 0.00 0.00
9:56 am 09:56 Sunny 21 -6.1 12 -11.1 68 68 NNW 18 30 30.36 1028 10 16 0.00 0.00
10:56 am 10:56 Sunny 25 -3.9 13 -10.6 60 60 NNW 17 28 30.34 1027 10 16 0.00 0.00
11:56 am 11:56 Sunny 28 -2.2 13 -10.6 52 52 N 17 28 30.32 1027 10 16 0.00 0.00
12:56 pm 12:56 Sunny 31 -0.6 14 -10 49 49 NNW 16 26 30.28 1026 10 16 0.00 0.00
1:56 pm 13:56 Sunny 33 0.6 11 -11.7 39 39 N 18 30 30.26 1025 10 16 0.00 0.00
2:56 pm 14:56 Sunny 34 1.1 8 -13.3 33 33 NW 14 22 30.25 1024 10 16 0.00 0.00
3:56 pm 15:56 Sunny 34 1.1 11 -11.7 38 38 NNW 15 24 30.25 1025 10 16 0.00 0.00
4:56 pm 16:56 Sunny 31 -0.6 13 -10.6 47 47 N 15 24 30.26 1025 10 16 0.00 0.00
5:56 pm 17:56 Clear 27 -2.8 12 -11.1 53 53 N 9 15 30.28 1026 10 16 0.00 0.00
6:56 pm 18:56 Clear 25 -3.9 11 -11.7 54 54 NNW 9 15 30.29 1026 10 16 0.00 0.00
7:56 pm 19:56 Clear 22 -5.6 9 -12.8 57 57 NNW 9 15 30.31 1026 10 16 0.00 0.00
8:56 pm 20:56 Clear 20 -6.7 9 -12.8 62 62 NNW 7 11 30.32 1027 10 16 0.00 0.00
9:56 pm 21:56 Clear 18 -7.8 8 -13.3 65 65 NNW 7 11 30.33 1027 10 16 0.00 0.00
10:56 pm 22:56 Clear 14 -10 7 -13.9 73 73 NW 5 7 30.34 1027 10 16 0.00 0.00
11:56 pm 23:56 Clear 13 -10.6 7 -13.9 77 77 WNW 9 15 30.33 1027 10 16 0.00 0.00

Powered by AerisWeather